Total_Precipitation_Accumulation
0.37 0.33 0.38 0.45 0.47 0.57 0.72 0.89 1.14 1.02 0.81 0.68 0.65 0.63 0.65 0.71 0.64 0.61 0.59 0.61 0.62 0.61 0.63 0.65 0.70 0.80 0.88 0.99 1.20 1.33 1.42 1.43 1.35 1.31 1.27 1.24 1.18 1.09 1.09 1.02 0.99 1.04 1.21 1.37
0.23 0.22 0.29 0.40 0.50 0.64 0.71 0.77 0.79 0.70 0.66 0.51 0.48 0.43 0.44 0.50 0.52 0.53 0.48 0.43 0.44 0.48 0.51 0.56 0.60 0.68 0.72 0.84 1.01 1.13 1.20 1.25 1.33 1.31 1.16 1.09 1.04 1.03 1.01 0.96 0.93 0.94 1.03 1.17
0.26 0.21 0.33 0.55 0.61 0.68 0.69 0.63 0.55 0.52 0.47 0.34 0.31 0.28 0.29 0.35 0.40 0.48 0.46 0.38 0.36 0.37 0.41 0.49 0.58 0.61 0.66 0.78 0.93 0.99 1.07 1.10 1.17 1.18 1.05 0.98 0.90 0.85 0.88 0.87 0.90 0.90 0.97 1.11
0.35 0.31 0.57 0.76 0.59 0.53 0.59 0.49 0.34 0.32 0.31 0.28 0.24 0.21 0.19 0.20 0.23 0.27 0.31 0.31 0.35 0.32 0.33 0.37 0.45 0.56 0.70 0.76 0.78 0.81 0.89 0.94 0.95 0.96 0.93 0.87 0.77 0.75 0.79 0.84 0.89 0.91 0.97 1.06
0.50 0.49 0.61 0.67 0.45 0.43 0.51 0.49 0.29 0.23 0.21 0.18 0.17 0.16 0.14 0.13 0.15 0.16 0.18 0.23 0.26 0.26 0.26 0.27 0.30 0.34 0.40 0.47 0.53 0.57 0.68 0.76 0.80 0.83 0.82 0.78 0.74 0.82 0.86 0.85 0.87 0.90 0.89 0.91
0.59 0.68 0.76 0.52 0.23 0.22 0.38 0.59 0.28 0.17 0.16 0.14 0.15 0.18 0.16 0.15 0.16 0.14 0.13 0.14 0.17 0.20 0.20 0.19 0.20 0.21 0.26 0.33 0.39 0.43 0.50 0.58 0.65 0.73 0.76 0.81 0.94 1.05 1.08 1.03 0.94 0.87 0.83 0.81
0.63 0.84 0.79 0.46 0.22 0.24 0.46 0.61 0.32 0.18 0.16 0.17 0.18 0.17 0.14 0.15 0.16 0.15 0.13 0.12 0.14 0.17 0.17 0.18 0.19 0.18 0.22 0.27 0.29 0.34 0.34 0.42 0.53 0.69 0.78 0.90 1.06 1.10 1.08 1.03 0.92 0.81 0.78 0.77
0.79 1.02 1.03 0.52 0.31 0.38 0.38 0.26 0.21 0.15 0.14 0.15 0.15 0.15 0.16 0.17 0.15 0.16 0.16 0.15 0.14 0.14 0.13 0.16 0.19 0.18 0.21 0.29 0.31 0.37 0.40 0.41 0.47 0.59 0.74 0.91 1.05 1.05 1.06 1.06 0.97 0.86 0.83 0.81
0.89 0.89 0.67 0.41 0.31 0.25 0.21 0.22 0.15 0.14 0.15 0.16 0.15 0.16 0.16 0.17 0.17 0.16 0.17 0.18 0.17 0.15 0.14 0.15 0.17 0.20 0.23 0.27 0.31 0.35 0.40 0.37 0.38 0.47 0.61 0.79 0.89 0.92 0.96 1.00 0.96 0.91 0.86 0.82
0.48 0.35 0.26 0.23 0.20 0.16 0.12 0.13 0.11 0.10 0.12 0.17 0.21 0.21 0.17 0.17 0.19 0.20 0.19 0.18 0.17 0.16 0.16 0.16 0.18 0.21 0.26 0.31 0.33 0.33 0.34 0.37 0.36 0.37 0.40 0.49 0.58 0.64 0.73 0.79 0.80 0.81 0.82 0.82
0.36 0.22 0.16 0.17 0.17 0.14 0.11 0.11 0.10 0.10 0.10 0.12 0.18 0.19 0.15 0.17 0.18 0.20 0.21 0.22 0.20 0.19 0.20 0.19 0.20 0.21 0.25 0.30 0.34 0.35 0.35 0.38 0.39 0.40 0.41 0.43 0.45 0.49 0.54 0.58 0.69 0.77 0.78 0.80
0.32 0.22 0.18 0.15 0.15 0.15 0.13 0.11 0.11 0.11 0.13 0.15 0.18 0.19 0.19 0.18 0.18 0.18 0.20 0.23 0.24 0.24 0.25 0.24 0.23 0.24 0.25 0.26 0.29 0.32 0.34 0.34 0.33 0.35 0.38 0.38 0.41 0.45 0.50 0.50 0.58 0.62 0.63 0.65
0.16 0.16 0.15 0.14 0.15 0.15 0.12 0.11 0.10 0.10 0.11 0.13 0.16 0.19 0.18 0.17 0.17 0.21 0.24 0.24 0.25 0.26 0.25 0.25 0.24 0.25 0.27 0.27 0.29 0.34 0.34 0.33 0.32 0.31 0.35 0.39 0.40 0.44 0.48 0.48 0.45 0.43 0.47 0.50
0.10 0.14 0.18 0.17 0.15 0.14 0.12 0.10 0.10 0.09 0.10 0.11 0.13 0.17 0.17 0.17 0.17 0.19 0.20 0.22 0.23 0.24 0.23 0.24 0.24 0.24 0.26 0.28 0.32 0.34 0.36 0.38 0.38 0.38 0.39 0.39 0.41 0.45 0.48 0.50 0.45 0.38 0.38 0.41
0.10 0.11 0.13 0.14 0.12 0.11 0.10 0.10 0.10 0.10 0.10 0.13 0.14 0.15 0.17 0.20 0.21 0.22 0.22 0.21 0.19 0.19 0.20 0.24 0.25 0.25 0.24 0.27 0.30 0.33 0.34 0.35 0.38 0.42 0.42 0.42 0.44 0.49 0.48 0.45 0.42 0.38 0.36 0.37
0.11 0.11 0.13 0.14 0.12 0.10 0.10 0.10 0.10 0.11 0.12 0.14 0.15 0.14 0.13 0.16 0.20 0.24 0.27 0.26 0.22 0.20 0.23 0.26 0.26 0.24 0.26 0.30 0.32 0.33 0.34 0.39 0.40 0.41 0.44 0.47 0.46 0.45 0.44 0.44 0.43 0.40 0.38 0.38
0.16 0.16 0.15 0.14 0.12 0.09 0.10 0.11 0.13 0.14 0.13 0.14 0.17 0.15 0.12 0.12 0.14 0.19 0.22 0.25 0.26 0.25 0.24 0.25 0.28 0.29 0.30 0.32 0.35 0.37 0.37 0.39 0.41 0.40 0.39 0.43 0.44 0.43 0.43 0.42 0.41 0.37 0.36 0.37
0.18 0.16 0.14 0.13 0.12 0.11 0.12 0.14 0.14 0.14 0.13 0.15 0.19 0.18 0.16 0.16 0.16 0.18 0.21 0.25 0.26 0.25 0.23 0.23 0.28 0.31 0.33 0.34 0.36 0.40 0.43 0.40 0.37 0.36 0.38 0.40 0.42 0.42 0.43 0.46 0.45 0.41 0.39 0.38
0.16 0.14 0.12 0.12 0.13 0.15 0.16 0.15 0.14 0.14 0.14 0.15 0.17 0.20 0.21 0.21 0.20 0.20 0.21 0.28 0.29 0.27 0.22 0.20 0.26 0.26 0.28 0.32 0.35 0.35 0.38 0.40 0.40 0.39 0.40 0.42 0.44 0.43 0.43 0.44 0.46 0.46 0.46 0.44
0.20 0.17 0.16 0.16 0.17 0.18 0.17 0.16 0.15 0.14 0.14 0.15 0.18 0.20 0.22 0.22 0.21 0.21 0.24 0.30 0.33 0.29 0.23 0.23 0.23 0.22 0.26 0.29 0.37 0.34 0.34 0.33 0.37 0.42 0.45 0.48 0.48 0.47 0.47 0.46 0.47 0.47 0.46 0.46
0.26 0.25 0.22 0.21 0.20 0.18 0.17 0.17 0.17 0.17 0.17 0.17 0.19 0.20 0.21 0.22 0.22 0.23 0.27 0.32 0.29 0.24 0.23 0.28 0.25 0.24 0.28 0.35 0.42 0.38 0.36 0.35 0.37 0.41 0.42 0.44 0.47 0.51 0.57 0.55 0.52 0.49 0.47 0.46
0.27 0.27 0.25 0.22 0.20 0.19 0.19 0.17 0.17 0.18 0.18 0.19 0.19 0.19 0.22 0.25 0.24 0.23 0.24 0.27 0.28 0.30 0.28 0.26 0.26 0.31 0.37 0.39 0.36 0.38 0.40 0.38 0.38 0.40 0.42 0.42 0.44 0.49 0.55 0.59 0.58 0.54 0.53 0.53
0.23 0.23 0.24 0.23 0.22 0.21 0.19 0.19 0.20 0.21 0.22 0.23 0.23 0.26 0.32 0.35 0.34 0.33 0.32 0.28 0.28 0.32 0.29 0.28 0.33 0.42 0.45 0.38 0.36 0.37 0.40 0.44 0.46 0.47 0.49 0.50 0.50 0.52 0.56 0.58 0.63 0.61 0.58 0.60
0.25 0.23 0.23 0.23 0.22 0.22 0.23 0.24 0.24 0.24 0.27 0.30 0.30 0.33 0.41 0.45 0.44 0.40 0.39 0.40 0.39 0.36 0.32 0.34 0.40 0.43 0.45 0.39 0.41 0.43 0.45 0.50 0.55 0.56 0.58 0.61 0.59 0.60 0.63 0.64 0.66 0.67 0.66 0.66
0.33 0.30 0.30 0.32 0.33 0.32 0.33 0.31 0.30 0.28 0.28 0.33 0.34 0.33 0.38 0.42 0.44 0.45 0.45 0.44 0.43 0.42 0.40 0.44 0.47 0.47 0.43 0.42 0.46 0.48 0.51 0.55 0.60 0.62 0.61 0.63 0.63 0.62 0.63 0.66 0.67 0.68 0.69 0.69
0.30 0.30 0.30 0.32 0.35 0.35 0.35 0.35 0.36 0.37 0.37 0.39 0.39 0.38 0.39 0.39 0.39 0.42 0.45 0.47 0.47 0.49 0.47 0.44 0.41 0.43 0.43 0.47 0.49 0.51 0.52 0.53 0.55 0.55 0.56 0.61 0.64 0.64 0.66 0.69 0.69 0.72 0.74 0.75
0.29 0.27 0.26 0.30 0.33 0.34 0.34 0.37 0.43 0.46 0.47 0.50 0.53 0.51 0.47 0.45 0.45 0.46 0.46 0.48 0.52 0.53 0.52 0.51 0.50 0.49 0.50 0.53 0.55 0.56 0.57 0.57 0.54 0.54 0.57 0.60 0.65 0.70 0.73 0.74 0.76 0.79 0.82 0.83